weather.gov     
National Weather Service

Regional Weather Roundup
NWS Homepage
This page is being discontinued on March 12, 2014.
The same data is available at this site. Please update your bookmarks.
Thank you, and we apologize for the inconvenience.
Please send an email to SR-SRH.Webmaster@noaa.gov with any concerns.


Current Version
Previous Version:    01  02  03  04  05  06  07  08  09  10  11  12  13  14  15  16  17  18  19  20  21  22  23  24  25  26  27  28  29  30  
   31  32  33  34  35  36  37  38  39  40  41  42  43  44  45  46  47  48  49  50  51  52  53  
[Printable]
454
ASUS46 KSGX 210310
RWRSGX

SAN DIEGO HOURLY WEATHER ROUNDUP
NATIONAL WEATHER SERVICE SAN DIEGO CA
800 PM PDT MON OCT 20 2014

NOTE: "FAIR" INDICATES FEW OR NO CLOUDS BELOW 12,000 FEET WITH NO
SIGNIFICANT WEATHER AND/OR OBSTRUCTIONS TO VISIBILITY.

CAZ042-043-060-061-PZZ750-775-210400-

GREATER SAN DIEGO AREA

CITY           SKY/WX    TMP DP  RH WIND       PRES   REMARKS
LINDBERGH FLD  MOCLDY    69  61  75 NW5       29.91R
POINT LOMA       N/A     67  61  82 NW9         N/A
NATIONAL CITY    N/A     69  63  82 N1        29.91R
CHULA VISTA      N/A     68  63  83 CALM      29.83S
IMPERIAL BEACH PTCLDY    66  62  87 NW3       29.90S
BROWN FIELD    MOCLDY    65  60  84 W3        29.91R
MIRAMAR MCAS   PTCLDY    66  59  78 NW3       29.90S
MONTGOMERY FLD PTCLDY    68  61  78 NW5       29.91R

$$

NORTH SAN DIEGO COUNTY

CITY           SKY/WX    TMP DP  RH WIND       PRES   REMARKS
CAMP PENDLETON MOCLDY    67  60  78 MISG      29.89R
OCEANSIDE AP   CLOUDY    69  61  75 SW6       29.89R
OCEANSIDE HBR    N/A     69  64  85 NW5       29.92R
VISTA            N/A     67  62  84 CALM      29.88R
CARLSBAD       CLOUDY    68  61  78 W3        29.89S
DEL MAR          N/A     68  63  85 CALM      29.92S
LA JOLLA SCRIP   N/A     67  63  86 CALM      29.87R
FALLBROOK        N/A     65  65  99 CALM      29.89R
ESCONDIDO        N/A     66  61  83 SW3       29.92R
SAN MARCOS       N/A     66  61  84 W3        29.88R
POWAY            N/A     65  60  82 CALM      29.91R

$$

EAST SAN DIEGO COUNTY

CITY           SKY/WX    TMP DP  RH WIND       PRES   REMARKS
RAMONA         CLEAR     60  57  89 W5        29.92R
SANTEE LAKES     N/A     66  61  83 CALM      29.91R
LA MESA          N/A     67  62  86 NW3       29.84R
JAMUL            N/A     64  60  86 CALM      29.90R
DESCANSO N       N/A     58  50  73 CALM      29.76S
MT. LAGUNA OBS   N/A     57  38  48 NW3       29.67S
CAMPO            N/A     62  57  83 SW6       29.92R

$$

ORANGE COUNTY AND THE LOS ANGELES BASIN

CITY           SKY/WX    TMP DP  RH WIND       PRES   REMARKS
JOHN WAYNE AP  PTCLDY    70  61  73 CALM      29.90R
LAKE FOREST FR   N/A     65  59  81 CALM      29.81R
SANTA ANA        N/A     68  62  79 CALM      29.85R
HUNTINGTON BCH   N/A     67  63  87 W6        29.91R
FULLERTON        N/A     69  60  73 W3        29.88R
LONG BEACH     CLEAR     68  62  81 NW5       29.89R
L.A. AP        PTCLDY    67  62  84 W10       29.89R
L.A. DOWNTOWN  CLEAR     68  61  78 CALM      29.89R

$$

THE INLAND EMPIRE

CITY           SKY/WX    TMP DP  RH WIND       PRES   REMARKS
CORONA         CLEAR     68  61  78 W3        29.90R
CHINO          CLEAR     67  60  78 W7        29.90R
ONTARIO        PTCLDY    69  60  73 W8        29.90R
SAN BERNARDINO CLEAR     68  57  68 W8        29.90R
RIVERSIDE AP   CLEAR     68  60  75 W6        29.89R
RIV CYN CREST    N/A     70  66  87 W1        29.87R
MORENO VALLEY    N/A     69  62  78 NW5       29.07R
MARCH ARB      CLEAR     68  58  70 W8        29.91R
HORSETHIEF CYN   N/A     68  55  62 NW7       29.91R
PERRIS           N/A     70  59  68 S2        29.87R
MENIFEE          N/A     69  63  79 S6        29.95R
HEMET EAST       N/A     68  56  63 CALM      29.87S
FRENCH VALLEY  FAIR      64  59  82 S5        29.91S
TEMECULA         N/A     67  62  84 SW3       29.87R

$$

SAN BERNARDINO AND RIVERSIDE COUNTY MOUNTAINS

CITY           SKY/WX    TMP DP  RH WIND       PRES   REMARKS
BIG BEAR AP    CLEAR     48  30  49 SW3       30.14S
PINE COVE        N/A     55  36  48 CALM      29.78S

$$

SOUTHERN DESERT INCLUDING THE COACHELLA VALLEY

CITY           SKY/WX    TMP DP  RH WIND       PRES   REMARKS
PALM SPRINGS   CLEAR     85  52  32 VRB3      29.80R
THOUSAND PALMS   N/A     83  53  35 NW3       29.75R
PALM DESERT      N/A     82  58  43 CALM      31.61S
THERMAL        CLEAR     75  55  49 N5        29.74R
BLYTHE         CLEAR     85  45  24 CALM      29.77S
IMPERIAL AP    CLEAR     82  52  35 CALM      29.74S
EL CENTRO NAS  PTCLDY    84  51  31 CALM      29.75R
YUMA AZ        CLEAR     85  51  31 CALM      29.76S
MEXICALI       PTCLDY    86  50  28 CALM      29.76

$$

UPPER DESERT

CITY           SKY/WX    TMP DP  RH WIND       PRES   REMARKS
VICTORVILLE AP PTCLDY    72  43  35 W5        29.94R
HESPERIA         N/A     68  46  45 W3        29.95R
APPLE VALLEY     N/A     70  45  40 CALM      30.01R
PALMDALE       PTCLDY    69  48  47 W20       29.93R
LANCASTER      PTCLDY    67  38  34 W10       29.93R
EDWARDS AFB    MOCLDY    69  38  32 W7        29.90R
DAGGETT        CLEAR     79  36  21 SW9       29.85R
29 PALMS N     CLEAR     77  40  26 S9        29.91S
NEEDLES        CLEAR     84  43  23 W9        29.79S

$$

REGIONAL REPORTS

CITY           SKY/WX    TMP DP  RH WIND       PRES   REMARKS
SANTA BARBARA  CLEAR     68  62  81 S3        29.86S
SANDBERG       PTCLDY    61  40  45 N15       30.04R
MT. WILSON       N/A     55  37  50 W6          N/A
LAS VEGAS NV   PTCLDY    82  40  22 SW13      29.79S
PHOENIX AZ     CLEAR     80  54  40 SW3       29.81S
TIJUANA        CLOUDY    66  57  72 W6        29.93R

$$

OFFSHORE ISLANDS

CITY           SKY/WX    TMP DP  RH WIND       PRES   REMARKS
CATALINA ARPT  CLOUDY    60  58  92 W12       29.93R FOG
SAN NICOLAS IS PTCLDY   N/A N/A N/A NW28G33   29.91R

$$

MARINE AND OFFSHORE BUOY REPORTS

STATION/POSITION SKY/WX   TEMP    WIND        PRES    SWELL
                          AIR SEA DIR/SP/G            HT/PER/DIR
                          (F)     (DEG/KT/KT) (MB)    (FT/S/D)
TANNER BANKS               67 70  310/ 19/ 23 1012.9R   7/320/17
S CLEMENTE BASIN           68 71  310/ 16/ 17 1012.3R   3/310/17
SAN NICOLAS IS.               68                N/A     5/310/18
SO. S. ROSA ISLA           66 68  320/ 23/ 27 1012.2S   5/16
W. S. BARBARA CH           66 67  340/ 17/ 21 1012.4R   8/310/17
M. S. BARBARA CH           68 68  280/ 17/ 21 1011.3
S. MONICA BASIN            68 71  260/  6/  8 1011.5S   3/250/11
S PEDRO CHANNEL               71                N/A     2/270/12
DANA POINT                    70                N/A     2/270/11
CMP PENDLETON NS              71                N/A     2/240/12
OCEANSIDE OFFSHR              72                N/A     2/240/11
TORREY PINES OTR              72                N/A     2/270/11
MISSION BAY BUOY              72                N/A     2/260/18
POINT LOMA SOUTH              72                N/A     3/280/18

$$





U.S. Dept. of Commerce
NOAA National Weather Service
1325 East West Highway
Silver Spring, MD 20910
E-mail: w-nws.webmaster@noaa.gov
Page last modified: May 16, 2007
NATIONAL WEATHER SERVICE: for Safety, for Work, for Fun - FOR LIFE